Home > Weather > Iasi > Past weeks

Flag for Romania Past Weather in Iasi, Romania — Yesterday and Last 2 Weeks

Now
77 °F

Sunny.


Feels Like: 79 °F
Forecast: 70 / 94 °F
Wind: 1 mph from North

Location: Iasi Airport

Current Time: Jul 28, 2016 at 9:45:58 AM

Latest Report: Jul 28, 2016 at 9:00 AM


Visibility: 10 mi

Pressure: 30.01 "Hg

Humidity: 57%

Dew Point: 61 °F

Location of IasiLocation

Past Weather in Iasi — Graph

°F

Iasi Temperature Yesterday

Maximum temperature yesterday: 90 °F (at 2:00 PM)
Minimum temperature yesterday: 63 °F (at 5:30 AM)
Average temperature yesterday: 79 °F

High & Low Weather Summary for the Past Weeks

 TemperatureHumidityPressure
High93 °F (Jul 17, 3:00 PM)88% (Jul 18, 6:00 AM)30.04 "Hg (Jul 18, 6:00 AM)
Low57 °F (Jul 21, 5:00 AM)20% (Jul 22, 6:00 PM)29.71 "Hg (Jul 14, 5:00 PM)
Average75 °F51%29.93 "Hg
* Reported Jul 13 8:00 AM — Jul 28 8:30 AM, Iasi, Weather by CustomWeather, © 2016

Note: Actual official high and low records may vary slightly from our data, if they occured in-between our weather recording intervals... More about our weather records

Advertising

Iasi Weather History for the Previous 24 Hours

Scroll right to see more
 ConditionsComfort  
Time TempWeatherWind HumidityBarometerVisibility
8:30 AM
Thu, Jul 28
75 °FSunny.1 mph57%30.01 "Hg10 mi
8:00 AM73 °FSunny.2 mph61%30.01 "Hg10 mi
7:30 AM70 °FSunny.No wind73%30.01 "Hg10 mi
7:00 AM66 °FSunny.1 mph78%30.01 "Hg10 mi
6:30 AM66 °FClear.1 mph73%30.01 "Hg10 mi
6:00 AM66 °FClear.No wind68%30.01 "Hg10 mi
5:30 AM66 °FClear.No wind73%30.01 "Hg10 mi
5:00 AM68 °FClear.2 mph69%30.01 "Hg10 mi
4:00 AM70 °FClear.1 mph64%30.01 "Hg10 mi
3:00 AM72 °FPassing clouds.2 mph61%30.01 "HgN/A
2:00 AM70 °FClear.3 mph64%30.01 "Hg10 mi
1:00 AM73 °FClear.3 mph57%30.01 "Hg10 mi
12:00 AM75 °FClear.2 mph54%30.01 "Hg10 mi
11:00 PM
Wed, Jul 27
77 °FClear.2 mph51%30.01 "Hg10 mi
10:00 PM79 °FClear.5 mph45%30.01 "Hg10 mi
9:00 PM81 °FSunny.6 mph42%29.98 "Hg10 mi
8:30 PM84 °FSunny.5 mph37%29.98 "Hg10 mi
8:00 PM86 °FSunny.6 mph35%29.95 "Hg10 mi
7:30 PM86 °FSunny.7 mph35%29.95 "Hg10 mi
7:00 PM88 °FPassing clouds.7 mph31%29.95 "HgN/A
6:30 PM88 °FSunny.7 mph33%29.98 "Hg10 mi
6:00 PM90 °FPassing clouds.7 mph29%29.98 "HgN/A
5:30 PM90 °FPassing clouds.9 mph29%29.98 "HgN/A
5:00 PM90 °FScattered clouds.8 mph29%29.98 "HgN/A
4:30 PM90 °FScattered clouds.9 mph29%29.98 "HgN/A
4:00 PM90 °FScattered clouds.9 mph31%29.98 "HgN/A
3:30 PM88 °FScattered clouds.6 mph31%29.98 "HgN/A
3:00 PM90 °FScattered clouds.5 mph29%30.01 "HgN/A
2:30 PM88 °FScattered clouds.3 mph33%30.01 "HgN/A
2:00 PM90 °FScattered clouds.2 mph31%30.01 "HgN/A
1:30 PM86 °FScattered clouds.6 mph35%30.01 "HgN/A
1:00 PM88 °FScattered clouds.2 mph35%30.01 "HgN/A
12:30 PM86 °FScattered clouds.2 mph35%30.04 "HgN/A
12:00 PM86 °FSunny.5 mph35%30.04 "Hg10 mi
11:30 AM86 °FSunny.2 mph40%30.04 "Hg10 mi
11:00 AM84 °FSunny.2 mph43%30.04 "Hg10 mi
10:30 AM81 °FSunny.2 mph51%30.04 "Hg10 mi
10:00 AM79 °FSunny.1 mph51%30.04 "Hg10 mi
9:30 AM75 °FSunny.3 mph54%30.04 "Hg10 mi
9:00 AM73 °FPassing clouds.3 mph61%30.04 "HgN/A
Weather by CustomWeather, © 2016

See weather overviewHow to use our weather pages